Weather WX

World > North America > United States > North Carolina

Gates, North Carolina Regional Weather

Lat: 36.50N, Lon: 76.77W
Wx Zone: NCZ014
Warning FLW WEATHER ALERT - (More Info. Click Here) Warning
Feedback

Gates, NC Regional Weather

Expires:201907170300;;758709
ASUS41 KAKQ 170215
RWRAKQ

REGIONAL WEATHER ROUNDUP
NATIONAL WEATHER SERVICE WAKEFIELD VA
1000 PM EDT TUE JUL 16 2019

Note: "fair" indicates few or no clouds below 12,000 feet with no
significant weather and/or obstructions to visibility. * = Denotes
station may not report precipitation (e.g., rain,snow,etc.),
thunder or fog.


NCZ012>017-030>032-170300-
NORTH CENTRAL AND EASTERN NORTH CAROLINA
  
CITY           SKY/WX    TMP DP  RH WIND       PRES   REMARKS
ROANOKE RAPIDS FAIR      72  72 100 CALM      30.08R FOG              
RALEIGH        FAIR      81  74  79 SE5       30.08R                  
ELIZABETH CITY FAIR      79  75  87 SW3       30.09R                  
AHOSKIE*       FAIR      74  74 100 CALM      30.07S                  
EDENTON*       FAIR      78  77  96 CALM      30.10R FOG              
CURRITUCK*     FAIR      77  76  98 MISG      30.09S                  
KILL DEVIL HLS FAIR      80  77  89 CALM      30.09S                  
MANTEO         FAIR      82  77  84 SW9       30.11R                  
CAPE HATTERAS  FAIR      84  78  82 SW6       30.11R HX  95           
TARBORO*       FAIR      75  73  93 CALM        N/A                   
GOLDSBORO      FAIR      79  73  79 SE3       30.07R                  
WASHINGTON     DRIZZLE   80  66  61 CALM      30.09R                  
GREENVILLE     LGT RAIN  77  73  88 CALM      30.09S                  
NEW BERN       LGT RAIN  80  78  94 CALM      30.10R                  
WILMINGTON     FAIR      83  75  77 S3        30.10R                  
$$


SKY/WX - Weather  TMP - Temperature  DP - Dew Point  RH - Relative Humidity
WIND - Wind Direction/Speed PRES - Barometric Pressure VSB - Visibility
WCI - Wind Chill Index E13G22 Wind - East Wind 13 mph/Gusts of 22 mph